Regional Weather Roundup
Issued by NWS

Home | Current Version | Previous Version | Text Only | Print | Product List | Glossary Off
Versions: 1 2 3 4 5 6 7 8 9 10 11 12 13 14 15 16 17 18 19 20 21 22 23 24 25 26 27 28 29 30 31 32 33 34 35 36 37 38 39 40 41 42 43 44 45 46 47 48 49 50

312
ASUS43 KDMX 231601
RWRIA

WEATHER ROUNDUP FOR IOWA
NATIONAL WEATHER SERVICE DES MOINES IA
1000 AM CST THU FEB 23 2017

NOTE: "FAIR" INDICATES FEW OR NO CLOUDS BELOW 12,000 FEET WITH NO
SIGNIFICANT WEATHER AND/OR OBSTRUCTIONS TO VISIBILITY.

* - THESE STATIONS ARE NOT NWS STATIONS...THUS NOT UNDER NWS
QUALITY CONTROL.  THEY ALSO DO NOT REPORT WEATHER SUCH
AS PRECIPITATION OR FOG.

IAZ001>003-012>014-020>022-031>034-043>046-231700-
   NORTHWEST IOWA

CITY           SKY/WX    TMP DP  RH WIND       PRES   REMARKS
CARROLL *      CLOUDY    37  36  93 NE18      29.80F WCI  27
CHEROKEE *     CLOUDY    34  31  91 NE13G18   29.83F WCI  25
DENISON *      CLOUDY    36  34  93 NE16G23   29.77F WCI  26
LE MARS *      CLOUDY    34  28  80 NE16G23   29.84F WCI  23
ORANGE CITY *  CLOUDY    34  30  86 E10G18    29.83F WCI  26
SHELDON *      CLOUDY    32  32 100 NE20      29.83F WCI  20
SIOUX CITY     CLOUDY    37  31  78 NE16      29.82F WCI  28
SPENCER        CLOUDY    33  29  85 NE17      29.86F WCI  22
STORM LAKE *   CLOUDY    32  32 100 NE20      29.81F WCI  20
$$

IAZ055>058-069>071-079>083-090>094-231700-
   SOUTHWEST IOWA

CITY           SKY/WX    TMP DP  RH WIND       PRES   REMARKS
ATLANTIC *     CLOUDY    39  36  87 NE18      29.75F WCI  30
CLARINDA *     CLOUDY    39  37  93 E15G23    29.74F WCI  31
COUNCIL BLFS * CLOUDY    37  37 100 NE18G25   29.74F WCI  27
CRESTON *      CLOUDY    37  37 100 E18G25    29.77F WCI  27
HARLAN  *      CLOUDY    37  37 100 NE15G24   29.79F WCI  28
LAMONI         LGT RAIN  39  38  96 NE17      29.74F WCI  30
RED OAK *      CLOUDY    39  36  87 E20       29.74F WCI  30
SHENANDOAH *   CLOUDY    39  37  93 NE22      29.72F WCI  29
$$

IAZ047>049-059>061-072>074-084-231700-
   CENTRAL IOWA

CITY           SKY/WX    TMP DP  RH WIND       PRES   REMARKS
AMES           CLOUDY    39  36  89 NE13      29.82F WCI  31
ANKENY *       CLOUDY    39  36  87 NE13      29.82F WCI  32
BOONE *        CLOUDY    39  37  93 NE15G23   29.81S WCI  31
CHARITON *     CLOUDY    41  37  87 E9        29.81R
DES MOINES     CLOUDY    42  36  79 E12       29.81F
GRINNELL*      CLOUDY    41  37  83 NE12      29.82S
KNOXVILLE *    CLOUDY    43  37  81 E10       29.80R
MARSHALLTOWN   CLOUDY    40  36  86 N14       29.81S WCI  32
NEWTON *       CLOUDY    41  36  81 NE15      29.79F
PELLA *        CLOUDY    42  37  81 NE3       29.83R
PERRY *        CLOUDY    39  35  88 NE14      29.81F WCI  30
$$

IAZ004>006-015-016-023>025-035-036-231700-
   NORTH CENTRAL IOWA

CITY           SKY/WX    TMP DP  RH WIND       PRES   REMARKS
ALGONA *       CLOUDY    36  34  93 NE14G20   29.86S WCI  27
CLARION *      CLOUDY    37  37 100 NE14      29.86R WCI  29
ESTHERVILLE    CLOUDY    31  30  96 NE16      29.87F WCI  20
FORT DODGE *   CLOUDY    37  30  75 NE13G18   29.84F WCI  29
MASON CITY     CLOUDY    36  32  85 NE16      29.86F WCI  26
FOREST CITY *  CLOUDY    36  32  87 NE14G20   29.86S WCI  27
WEBSTER CITY * CLOUDY    37  34  87 NE15      29.81F WCI  28
IOWA FALLS *   CLOUDY    38  35  86 NE13      29.84R WCI  31
$$

IAZ007>011-017>019-026>030-037>042-050>054-066-231700-
   NORTHEAST IOWA

CITY           SKY/WX    TMP DP  RH WIND       PRES   REMARKS
CEDAR RAPIDS   CLOUDY    43  37  79 NE13      29.80R
CHARLES CITY * CLOUDY    37  37 100 NE17      29.84F WCI  28
CLINTON *      CLOUDY    45  40  82 E3        29.82R
DECORAH *      CLOUDY    39  32  75 N12       29.83S WCI  32
DUBUQUE        PTSUNNY   41  35  79 NE13G25   29.82R
MONTICELLO *   CLOUDY    43  37  81 VRB7G18   29.81R
OELWEIN *      PTSUNNY   41  36  81 N21       29.79F
WATERLOO       CLOUDY    41  34  76 NE12      29.81F
$$

IAZ064-065-067-068-078-231700-
   EAST CENTRAL IOWA

CITY           SKY/WX    TMP DP  RH WIND       PRES   REMARKS
DAVENPORT      CLOUDY    45  39  79 NE9       29.80R
IOWA CITY      CLOUDY    45  37  73 N10       29.82S
MUSCATINE *    CLOUDY    45  39  81 NE9       29.81S
QUAD CITIES    CLOUDY    46  41  82 NE9       29.80S
$$

IAZ062-063-075>077-085>089-095>099-231700-
   SOUTHEAST IOWA

CITY           SKY/WX    TMP DP  RH WIND       PRES   REMARKS
BURLINGTON     CLOUDY    45  41  86 NE9       29.79S
FAIRFIELD *    CLOUDY    45  37  76 CALM      29.82R
KEOKUK *       CLOUDY    45  41  87 NE7       29.80R
CENTERVILLE *  LGT RAIN  41  39  93 NE13      29.80F
OTTUMWA        CLOUDY    44  39  82 E7        29.81R
WASHINGTON *   CLOUDY    45  39  81 NE10      29.81F
$$

ABBREVIATIONS USED IN REMARKS
   TC - TEMPERATURES IN CELSIUS
  WCI - WIND CHILL INDEX
   HX - HEAT INDEX
  VSB - VISIBILITY
$$





USA.gov is the U.S. government's official web portal to all federal, state and local government web resources and services.